GW4412 Weather Reports


time (UTC)temp
C
wind
direction
speed
KPH
gust
KPH
rain 1hr
cm
rain 24hr
cm
rain mn
cm
humidity
%
barometer
mb
20260906090013 32 270 0.0 0.0 0.00 0.00 0.00 31 1019.0
20260906085512 32 192 4.8 4.8 0.00 0.00 0.00 31 1019.0
20260906085012 33 293 0.0 0.0 0.00 0.00 0.00 30 1019.0
20260906084512 32 252 3.2 3.2 0.00 0.00 0.00 31 1018.0
20260906084012 31 174 0.0 0.0 0.00 0.00 0.00 30 1019.0
20260906083512 32 270 3.2 3.2 0.00 0.00 0.00 30 1019.0
20260906083012 32 262 3.2 3.2 0.00 0.00 0.00 31 1019.0
20260906082513 31 162 3.2 3.2 0.00 0.00 0.00 32 1019.0
20260906082012 31 247 0.0 0.0 0.00 0.00 0.00 33 1019.0
20260906081512 31 276 6.4 6.4 0.00 0.00 0.00 33 1019.0
20260906081012 31 274 0.0 0.0 0.00 0.00 0.00 32 1019.0
20260906080512 30 180 0.0 0.0 0.00 0.00 0.00 33 1019.0
20260906080013 30 180 0.0 0.0 0.00 0.00 0.00 34 1019.0
20260906075512 29 184 0.0 0.0 0.00 0.00 0.00 35 1019.0
20260906075012 29 273 0.0 0.0 0.00 0.00 0.00 37 1019.0
20260906074512 29 270 0.0 0.0 0.00 0.00 0.00 36 1019.0
20260906074012 29 280 0.0 0.0 0.00 0.00 0.00 37 1019.0
20260906073512 29 108 0.0 0.0 0.00 0.00 0.00 35 1019.0
20260906073013 28 186 0.0 0.0 0.00 0.00 0.00 36 1019.0
20260906072512 30 253 0.0 0.0 0.00 0.00 0.00 34 1018.0
20260906072012 29 357 0.0 0.0 0.00 0.00 0.00 35 1019.0
20260906071512 28 357 0.0 0.0 0.00 0.00 0.00 36 1019.0
20260906071012 29 191 0.0 0.0 0.00 0.00 0.00 37 1018.0
20260906070512 29 198 0.0 0.0 0.00 0.00 0.00 37 1018.0
20260906070012 29 294 0.0 0.0 0.00 0.00 0.00 38 1018.0
20260906065512 28 152 0.0 0.0 0.00 0.00 0.00 40 1018.0
20260906065012 28 152 0.0 0.0 0.00 0.00 0.00 38 1018.0
20260906064512 28 152 0.0 0.0 0.00 0.00 0.00 37 1018.0
20260906064013 28 95 0.0 0.0 0.00 0.00 0.00 36 1018.0
20260906063512 28 270 0.0 0.0 0.00 0.00 0.00 35 1018.0
20260906063012 27 270 0.0 0.0 0.00 0.00 0.00 36 1018.0
20260906062512 27 270 0.0 0.0 0.00 0.00 0.00 37 1018.0
20260906062012 26 270 0.0 0.0 0.00 0.00 0.00 37 1018.0
20260906061512 26 270 0.0 0.0 0.00 0.00 0.00 39 1018.0
20260906061012 26 270 0.0 0.0 0.00 0.00 0.00 39 1018.0
20260906060513 25 270 0.0 0.0 0.00 0.00 0.00 40 1018.0
20260906060012 25 12 0.0 0.0 0.00 0.00 0.00 40 1018.0
20260906055512 24 12 0.0 0.0 0.00 0.00 0.00 42 1018.0
20260906055012 24 158 0.0 0.0 0.00 0.00 0.00 43 1018.0
20260906054512 23 158 0.0 0.0 0.00 0.00 0.00 43 1018.0
20260906054013 23 158 0.0 0.0 0.00 0.00 0.00 43 1018.0
20260906053512 23 158 0.0 0.0 0.00 0.00 0.00 44 1018.0
20260906053012 23 158 0.0 0.0 0.00 0.00 0.00 45 1018.0
20260906052512 22 159 0.0 0.0 0.00 0.00 0.00 45 1018.0
20260906052012 22 158 0.0 0.0 0.00 0.00 0.00 46 1018.0
20260906051514 22 157 0.0 0.0 0.00 0.00 0.00 47 1018.0
20260906051012 21 281 0.0 0.0 0.00 0.00 0.00 48 1018.0
20260906050512 21 282 0.0 0.0 0.00 0.00 0.00 48 1018.0
20260906050012 20 163 0.0 0.0 0.00 0.00 0.00 50 1018.0
20260906045512 20 163 0.0 0.0 0.00 0.00 0.00 51 1018.0
20260906045111 20 198 0.0 0.0 0.00 0.00 0.00 51 1018.0
20260906044512 20 192 0.0 0.0 0.00 0.00 0.00 51 1018.0
20260906044012 20 2 0.0 0.0 0.00 0.00 0.00 52 1017.0
20260906043512 20 2 0.0 0.0 0.00 0.00 0.00 52 1018.0
20260906043016 20 357 0.0 0.0 0.00 0.00 0.00 52 1018.0
20260906042512 20 290 0.0 0.0 0.00 0.00 0.00 52 1018.0
20260906042012 20 277 0.0 0.0 0.00 0.00 0.00 53 1017.0
20260906041513 20 277 0.0 0.0 0.00 0.00 0.00 53 1017.0
20260906041012 20 6 0.0 0.0 0.00 0.00 0.00 53 1017.0
20260906040512 20 6 0.0 0.0 0.00 0.00 0.00 53 1017.0
20260906040012 20 6 0.0 0.0 0.00 0.00 0.00 52 1017.0
20260906035512 20 6 0.0 0.0 0.00 0.00 0.00 52 1017.0
20260906035012 20 6 0.0 0.0 0.00 0.00 0.00 52 1017.0
20260906034512 20 6 0.0 0.0 0.00 0.00 0.00 52 1017.0
20260906034013 20 6 0.0 0.0 0.00 0.00 0.00 52 1017.0
20260906033512 20 136 0.0 0.0 0.00 0.00 0.00 52 1017.0
20260906033012 20 133 0.0 0.0 0.00 0.00 0.00 52 1017.0
20260906032512 20 349 0.0 0.0 0.00 0.00 0.00 52 1017.0
20260906032013 20 349 0.0 0.0 0.00 0.00 0.00 52 1017.0
20260906031512 20 276 0.0 0.0 0.00 0.00 0.00 51 1017.0
20260906031012 20 276 0.0 0.0 0.00 0.00 0.00 51 1017.0
20260906030512 20 313 0.0 0.0 0.00 0.00 0.00 52 1017.0
20260906030012 20 313 0.0 0.0 0.00 0.00 0.00 51 1017.0
20260906025511 20 129 0.0 0.0 0.00 0.00 0.00 51 1017.0
20260906025013 20 129 0.0 0.0 0.00 0.00 0.00 50 1017.0
20260906024512 20 129 0.0 0.0 0.00 0.00 0.00 51 1017.0
20260906024012 20 129 0.0 0.0 0.00 0.00 0.00 51 1017.0
20260906023512 20 129 0.0 0.0 0.00 0.00 0.00 51 1017.0
20260906023012 21 129 0.0 0.0 0.00 0.00 0.00 50 1017.0
20260906022514 21 129 0.0 0.0 0.00 0.00 0.00 50 1017.0
20260906022013 21 343 0.0 0.0 0.00 0.00 0.00 50 1017.0
20260906021512 21 343 0.0 0.0 0.00 0.00 0.00 49 1017.0
20260906021012 21 343 0.0 0.0 0.00 0.00 0.00 49 1017.0
20260906020512 21 343 0.0 0.0 0.00 0.00 0.00 49 1017.0
20260906020013 21 343 0.0 0.0 0.00 0.00 0.00 49 1017.0
20260906015513 21 343 0.0 0.0 0.00 0.00 0.00 49 1017.0
20260906015013 21 343 0.0 0.0 0.00 0.00 0.00 48 1017.0
20260906014034 21 180 0.0 0.0 0.00 0.00 0.00 49 1017.0
20260906013512 21 180 0.0 0.0 0.00 0.00 0.00 48 1017.0
20260906013013 21 300 0.0 0.0 0.00 0.00 0.00 49 1017.0
20260906012512 21 300 0.0 0.0 0.00 0.00 0.00 48 1017.0
20260906012012 21 300 0.0 0.0 0.00 0.00 0.00 48 1017.0
20260906011512 21 300 0.0 0.0 0.00 0.00 0.00 49 1017.0
20260906011012 21 300 0.0 0.0 0.00 0.00 0.00 48 1017.0
20260906010512 21 300 0.0 0.0 0.00 0.00 0.00 48 1017.0
20260906010012 21 300 0.0 0.0 0.00 0.00 0.00 48 1017.0
20260906005512 22 300 0.0 0.0 0.00 0.00 0.00 47 1017.0
20260906005012 22 300 0.0 0.0 0.00 0.00 0.00 47 1017.0
20260906004513 22 300 0.0 0.0 0.00 0.00 0.00 46 1017.0
20260906004012 22 300 0.0 0.0 0.00 0.00 0.00 46 1017.0
20260906003512 22 267 0.0 0.0 0.00 0.00 0.00 46 1017.0
20260906003013 22 307 0.0 0.0 0.00 0.00 0.00 46 1017.0
20260906002512 22 307 0.0 0.0 0.00 0.00 0.00 46 1017.0
20260906002012 23 307 0.0 0.0 0.00 0.00 0.00 45 1017.0
20260906001513 23 314 0.0 0.0 0.00 0.00 0.00 45 1017.0
20260906001012 23 344 0.0 0.0 0.00 0.00 0.00 44 1017.0
20260906000512 23 343 0.0 0.0 0.00 0.00 0.00 44 1017.0
20260906000012 23 114 0.0 0.0 0.00 0.00 0.00 44 1017.0
20260905235512 23 114 0.0 0.0 0.00 0.00 0.00 43 1017.0
20260905235012 23 114 0.0 0.0 0.00 0.00 0.00 42 1017.0
20260905234513 23 351 0.0 0.0 0.00 0.00 0.00 43 1017.0
20260905234013 24 351 0.0 0.0 0.00 0.00 0.00 42 1017.0
20260905233512 24 351 0.0 0.0 0.00 0.00 0.00 41 1017.0
20260905233012 24 351 0.0 0.0 0.00 0.00 0.00 41 1017.0
20260905232512 24 350 0.0 0.0 0.00 0.00 0.00 41 1017.0
20260905232012 23 350 0.0 0.0 0.00 0.00 0.00 42 1017.0
20260905231513 23 350 0.0 0.0 0.00 0.00 0.00 43 1017.0
20260905231012 23 351 0.0 0.0 0.00 0.00 0.00 43 1018.0
20260905230511 23 351 0.0 0.0 0.00 0.00 0.00 43 1017.0
20260905230012 23 351 0.0 0.0 0.00 0.00 0.00 43 1018.0
20260905225512 24 351 0.0 0.0 0.00 0.00 0.00 43 1017.0
20260905225013 24 351 0.0 0.0 0.00 0.00 0.00 42 1018.0
20260905224512 24 350 0.0 0.0 0.00 0.00 0.00 42 1017.0
20260905224012 24 350 0.0 0.0 0.00 0.00 0.00 42 1018.0
20260905223512 24 351 0.0 0.0 0.00 0.00 0.00 43 1018.0
20260905223012 24 350 0.0 0.0 0.00 0.00 0.00 43 1018.0
20260905222512 23 350 0.0 0.0 0.00 0.00 0.00 44 1017.0
20260905222013 23 351 0.0 0.0 0.00 0.00 0.00 44 1017.0
20260905221513 23 351 0.0 0.0 0.00 0.00 0.00 43 1017.0
20260905221012 23 350 0.0 0.0 0.00 0.00 0.00 44 1017.0
20260905220512 23 350 0.0 0.0 0.00 0.00 0.00 43 1018.0
20260905220013 23 351 0.0 0.0 0.00 0.00 0.00 43 1017.0
20260905215512 24 351 0.0 0.0 0.00 0.00 0.00 42 1018.0
20260905215012 24 351 0.0 0.0 0.00 0.00 0.00 43 1017.0
20260905214512 24 351 0.0 0.0 0.00 0.00 0.00 44 1018.0
20260905214012 24 350 0.0 0.0 0.00 0.00 0.00 44 1018.0
20260905213513 25 350 0.0 0.0 0.00 0.00 0.00 43 1018.0
20260905213012 25 350 0.0 0.0 0.00 0.00 0.00 43 1018.0
20260905212512 25 350 0.0 0.0 0.00 0.00 0.00 42 1018.0
20260905212012 25 350 0.0 0.0 0.00 0.00 0.00 42 1018.0
20260905211513 25 350 0.0 0.0 0.00 0.00 0.00 42 1018.0
20260905211012 25 350 0.0 0.0 0.00 0.00 0.00 42 1018.0
20260905210512 25 350 0.0 0.0 0.00 0.00 0.00 42 1017.0
20260905210012 25 350 0.0 0.0 0.00 0.00 0.00 41 1018.0
20260905205512 25 350 0.0 0.0 0.00 0.00 0.00 41 1018.0
20260905205012 25 350 0.0 0.0 0.00 0.00 0.00 41 1018.0
20260905204512 25 350 0.0 0.0 0.00 0.00 0.00 40 1018.0
20260905204012 25 350 0.0 0.0 0.00 0.00 0.00 41 1018.0
20260905203512 25 350 0.0 0.0 0.00 0.00 0.00 41 1018.0
20260905203012 26 350 0.0 0.0 0.00 0.00 0.00 40 1018.0
20260905202512 26 350 0.0 0.0 0.00 0.00 0.00 40 1018.0
20260905202012 26 350 0.0 0.0 0.00 0.00 0.00 39 1018.0
20260905201512 26 350 0.0 0.0 0.00 0.00 0.00 38 1018.0
20260905201012 26 350 0.0 0.0 0.00 0.00 0.00 39 1018.0
20260905200513 26 350 0.0 0.0 0.00 0.00 0.00 38 1018.0
20260905200012 26 350 0.0 0.0 0.00 0.00 0.00 38 1018.0
20260905195512 26 350 0.0 0.0 0.00 0.00 0.00 38 1018.0
20260905195012 27 350 0.0 0.0 0.00 0.00 0.00 37 1018.0
20260905194513 27 350 0.0 0.0 0.00 0.00 0.00 38 1018.0
20260905194012 26 350 0.0 0.0 0.00 0.00 0.00 38 1018.0
20260905193512 26 350 0.0 0.0 0.00 0.00 0.00 38 1018.0
20260905193012 26 350 0.0 0.0 0.00 0.00 0.00 38 1018.0
20260905192513 26 350 0.0 0.0 0.00 0.00 0.00 38 1018.0
20260905192014 26 350 0.0 0.0 0.00 0.00 0.00 39 1018.0
20260905191512 26 350 0.0 0.0 0.00 0.00 0.00 38 1018.0
20260905191012 27 350 0.0 0.0 0.00 0.00 0.00 37 1018.0
20260905190512 27 350 0.0 0.0 0.00 0.00 0.00 37 1018.0
20260905190012 27 350 0.0 0.0 0.00 0.00 0.00 37 1018.0
20260905185512 27 350 0.0 0.0 0.00 0.00 0.00 37 1018.0
20260905185012 27 350 0.0 0.0 0.00 0.00 0.00 37 1018.0
20260905184512 27 350 0.0 0.0 0.00 0.00 0.00 37 1018.0
20260905184012 27 350 0.0 0.0 0.00 0.00 0.00 36 1018.0
20260905183512 28 350 0.0 0.0 0.00 0.00 0.00 36 1018.0
20260905183012 28 359 0.0 0.0 0.00 0.00 0.00 36 1017.0
20260905182512 28 359 0.0 0.0 0.00 0.00 0.00 35 1018.0
20260905182012 28 356 0.0 0.0 0.00 0.00 0.00 35 1017.0
20260905181512 28 356 0.0 0.0 0.00 0.00 0.00 35 1018.0
20260905181012 28 91 0.0 0.0 0.00 0.00 0.00 35 1017.0
20260905180512 28 2 0.0 0.0 0.00 0.00 0.00 35 1017.0
20260905180012 28 1 0.0 0.0 0.00 0.00 0.00 35 1017.0
20260905175512 28 1 0.0 0.0 0.00 0.00 0.00 35 1017.0
20260905175012 28 2 0.0 0.0 0.00 0.00 0.00 35 1017.0
20260905174512 28 1 0.0 0.0 0.00 0.00 0.00 35 1017.0
20260905174012 28 1 0.0 0.0 0.00 0.00 0.00 35 1017.0
20260905173512 28 1 0.0 0.0 0.00 0.00 0.00 34 1017.0
20260905173012 29 1 1.6 1.6 0.00 0.00 0.00 34 1017.0
20260905172512 29 354 4.8 4.8 0.00 0.00 0.00 34 1017.0
20260905172012 29 4 0.0 0.0 0.00 0.00 0.00 33 1017.0
20260905171512 30 6 0.0 0.0 0.00 0.00 0.00 33 1017.0
20260905171012 30 354 0.0 0.0 0.00 0.00 0.00 32 1017.0
20260905170512 30 98 0.0 0.0 0.00 0.00 0.00 31 1017.0
20260905170015 30 60 0.0 0.0 0.00 0.00 0.00 31 1017.0
20260905165512 30 102 4.8 4.8 0.00 0.00 0.00 31 1017.0
20260905165012 31 60 1.6 1.6 0.00 0.00 0.00 31 1017.0
20260905164517 31 66 3.2 3.2 0.00 0.00 0.00 31 1017.0
20260905164012 31 332 0.0 0.0 0.00 0.00 0.00 31 1017.0
20260905163513 31 74 0.0 0.0 0.00 0.00 0.00 31 1017.0
20260905163012 31 73 3.2 3.2 0.00 0.00 0.00 30 1017.0
20260905162512 32 70 0.0 0.0 0.00 0.00 0.00 30 1017.0
20260905162014 32 96 0.0 0.0 0.00 0.00 0.00 30 1017.0
20260905161512 32 360 4.8 4.8 0.00 0.00 0.00 29 1017.0
20260905161012 32 95 0.0 0.0 0.00 0.00 0.00 29 1017.0
20260905160512 32 112 0.0 0.0 0.00 0.00 0.00 29 1017.0
20260905160012 33 54 0.0 0.0 0.00 0.00 0.00 28 1017.0
20260905155513 32 54 4.8 4.8 0.00 0.00 0.00 28 1017.0
20260905155012 32 70 1.6 1.6 0.00 0.00 0.00 28 1017.0
20260905154512 31 36 0.0 0.0 0.00 0.00 0.00 28 1017.0
20260905154012 31 22 4.8 6.4 0.00 0.00 0.00 29 1017.0
20260905153512 31 342 0.0 0.0 0.00 0.00 0.00 28 1017.0
20260905153012 32 42 0.0 0.0 0.00 0.00 0.00 28 1017.0
20260905152512 32 348 0.0 0.0 0.00 0.00 0.00 29 1017.0
20260905152012 32 5 0.0 0.0 0.00 0.00 0.00 28 1017.0
20260905151512 32 93 0.0 0.0 0.00 0.00 0.00 28 1017.0
20260905151012 32 78 4.8 4.8 0.00 0.00 0.00 28 1017.0
20260905150513 32 55 3.2 3.2 0.00 0.00 0.00 28 1017.0
20260905150013 32 93 8.0 8.0 0.00 0.00 0.00 29 1017.0
20260905145512 32 345 0.0 0.0 0.00 0.00 0.00 28 1017.0
20260905145012 32 314 14.5 14.5 0.00 0.00 0.00 29 1017.0
20260905144512 32 330 6.4 6.4 0.00 0.00 0.00 27 1017.0
20260905144012 32 174 12.9 14.5 0.00 0.00 0.00 27 1017.0
20260905143512 32 348 4.8 4.8 0.00 0.00 0.00 27 1017.0
20260905143012 32 44 3.2 3.2 0.00 0.00 0.00 28 1017.0
20260905142512 33 42 1.6 1.6 0.00 0.00 0.00 26 1017.0
20260905142014 32 42 3.2 3.2 0.00 0.00 0.00 27 1017.0
20260905141512 33 72 3.2 3.2 0.00 0.00 0.00 27 1017.0
20260905141012 33 168 6.4 6.4 0.00 0.00 0.00 27 1017.0
20260905140512 32 162 0.0 0.0 0.00 0.00 0.00 28 1017.0
20260905140012 33 186 0.0 0.0 0.00 0.00 0.00 27 1017.0
20260905135512 33 54 0.0 0.0 0.00 0.00 0.00 25 1017.0
20260905135012 33 360 6.4 6.4 0.00 0.00 0.00 26 1017.0
20260905134512 33 122 4.8 4.8 0.00 0.00 0.00 26 1017.0
20260905134012 33 36 0.0 0.0 0.00 0.00 0.00 25 1017.0
20260905133512 33 120 3.2 3.2 0.00 0.00 0.00 26 1017.0
20260905133012 33 66 8.0 9.7 0.00 0.00 0.00 27 1017.0
20260905132512 32 133 3.2 3.2 0.00 0.00 0.00 27 1017.0
20260905132014 32 144 3.2 3.2 0.00 0.00 0.00 27 1017.0
20260905131512 32 270 0.0 0.0 0.00 0.00 0.00 27 1017.0
20260905131012 32 4 0.0 0.0 0.00 0.00 0.00 28 1017.0
20260905130512 32 120 9.7 11.3 0.00 0.00 0.00 28 1017.0
20260905130012 32 132 1.6 1.6 0.00 0.00 0.00 28 1017.0
20260905125512 32 84 3.2 3.2 0.00 0.00 0.00 28 1017.0
20260905125012 32 102 4.8 6.4 0.00 0.00 0.00 27 1017.0
20260905124513 32 168 6.4 6.4 0.00 0.00 0.00 27 1017.0
20260905124012 32 342 8.0 9.7 0.00 0.00 0.00 29 1017.0
20260905123513 32 62 4.8 4.8 0.00 0.00 0.00 28 1017.0
20260905123013 32 42 4.8 4.8 0.00 0.00 0.00 29 1017.0
20260905122512 32 332 12.9 12.9 0.00 0.00 0.00 29 1018.0
20260905122012 32 24 17.7 20.9 0.00 0.00 0.00 29 1018.0
20260905121513 32 346 3.2 3.2 0.00 0.00 0.00 28 1017.0
20260905121012 32 312 0.0 0.0 0.00 0.00 0.00 28 1017.0
20260905120022 32 282 8.0 9.7 0.00 0.00 0.00 29 1018.0
20260905115512 32 326 6.4 6.4 0.00 0.00 0.00 29 1018.0
20260905115013 32 336 8.0 9.7 0.00 0.00 0.00 29 1018.0
20260905114512 32 60 1.6 1.6 0.00 0.00 0.00 29 1018.0
20260905114012 31 16 4.8 6.4 0.00 0.00 0.00 29 1018.0
20260905113512 32 288 14.5 16.1 0.00 0.00 0.00 29 1018.0
20260905113013 32 306 9.7 11.3 0.00 0.00 0.00 27 1018.0
20260905112513 32 288 8.0 8.0 0.00 0.00 0.00 28 1018.0
20260905112012 32 330 8.0 9.7 0.00 0.00 0.00 29 1018.0
20260905111512 32 51 9.7 11.3 0.00 0.00 0.00 28 1018.0
20260905111012 32 276 6.4 6.4 0.00 0.00 0.00 28 1018.0
20260905110512 32 264 4.8 6.4 0.00 0.00 0.00 27 1018.0
20260905110012 31 72 0.0 0.0 0.00 0.00 0.00 28 1018.0
20260905105512 32 84 6.4 6.4 0.00 0.00 0.00 28 1018.0
20260905105012 31 37 0.0 0.0 0.00 0.00 0.00 29 1018.0
20260905104512 32 314 8.0 9.7 0.00 0.00 0.00 28 1018.0
20260905104012 32 16 14.5 14.5 0.00 0.00 0.00 27 1018.0
20260905103512 32 330 8.0 8.0 0.00 0.00 0.00 27 1018.0
20260905103012 31 101 3.2 3.2 0.00 0.00 0.00 29 1018.0
20260905102512 32 32 4.8 4.8 0.00 0.00 0.00 27 1018.0
20260905102012 32 120 0.0 0.0 0.00 0.00 0.00 28 1018.0
20260905101512 31 282 3.2 3.2 0.00 0.00 0.00 29 1018.0
20260905101012 31 306 8.0 8.0 0.00 0.00 0.00 29 1018.0
20260905100512 31 336 9.7 11.3 0.00 0.00 0.00 29 1018.0
20260905100013 32 56 4.8 4.8 0.00 0.00 0.00 29 1018.0
20260905095512 31 360 4.8 4.8 0.00 0.00 0.00 28 1018.0
20260905095013 32 360 17.7 24.1 0.00 0.00 0.00 28 1018.0
20260905094512 31 162 4.8 4.8 0.00 0.00 0.00 29 1018.0
20260905094013 31 325 0.0 0.0 0.00 0.00 0.00 30 1018.0
20260905093512 31 25 12.9 14.5 0.00 0.00 0.00 29 1018.0
20260905093012 31 6 4.8 4.8 0.00 0.00 0.00 29 1018.0
20260905092513 31 65 1.6 1.6 0.00 0.00 0.00 29 1018.0
20260905092013 31 336 8.0 9.7 0.00 0.00 0.00 29 1018.0
20260905091512 31 342 4.8 4.8 0.00 0.00 0.00 30 1018.0
20260905091013 30 112 4.8 6.4 0.00 0.00 0.00 30 1018.0
20260905090513 31 327 9.7 11.3 0.00 0.00 0.00 29 1018.0